WA6MHA-11 Weather Reports


Display with metric or nautical units.
time (UTC)temp
F
wind
direction
speed
MPH
gust
MPH
rain 1hr
in
rain 24hr
in
rain mn
in
humidity
%
barometer
mb
20180624165833 66 126 2.0 7.0 0.00 0.00 0.00 51 1016.6
20180624165432 66 123 4.0 6.0 0.00 0.00 0.00 52 1016.5
20180624165203 65 180 3.0 5.0 0.00 0.00 0.00 52 1016.4
20180624165032 65 87 5.0 7.0 0.00 0.00 0.00 52 1016.5
20180624164900 64 150 4.0 4.0 0.00 0.00 0.00 52 1016.4
20180624164632 65 117 3.0 6.0 0.00 0.00 0.00 52 1016.6
20180624164628 65 117 3.0 6.0 0.00 0.00 0.00 52 1016.6
20180624164559 64 177 3.0 6.0 0.00 0.00 0.00 52 1016.3
20180624164459 64 108 3.0 6.0 0.00 0.00 0.00 53 1016.3
20180624164405 64 94 4.0 7.0 0.00 0.00 0.00 52 1016.3
20180624164227 65 126 2.0 7.0 0.00 0.00 0.00 52 1016.6
20180624164203 64 128 4.0 6.0 0.00 0.00 0.00 52 1016.3
20180624163843 64 135 1.0 4.0 0.00 0.00 0.00 52 1016.3
20180624163826 65 128 7.0 7.0 0.00 0.00 0.00 52 1016.6
20180624163425 65 123 2.0 7.0 0.00 0.00 0.00 53 1016.5
20180624163413 64 180 4.0 6.0 0.00 0.00 0.00 53 1016.2
20180624163024 65 126 7.0 7.0 0.00 0.00 0.00 52 1016.6
20180624162927 65 123 7.0 7.0 0.00 0.00 0.00 52 1016.5
20180624162622 65 123 4.0 7.0 0.00 0.00 0.00 52 1016.6
20180624162220 65 123 7.0 7.0 0.00 0.00 0.00 52 1016.5
20180624161819 65 175 3.0 6.0 0.00 0.00 0.00 52 1016.5
20180624161418 64 128 5.0 7.0 0.00 0.00 0.00 52 1016.3
20180624161029 64 180 4.0 6.0 0.00 0.00 0.00 52 1016.0
20180624161017 65 180 3.0 5.0 0.00 0.00 0.00 52 1016.4
20180624160616 64 150 4.0 4.0 0.00 0.00 0.00 52 1016.4
20180624160214 64 159 1.0 5.0 0.00 0.00 0.00 52 1016.3
20180624155854 64 177 3.0 6.0 0.00 0.00 0.00 52 1016.3
20180624155820 63 121 3.0 5.0 0.00 0.00 0.00 52 1015.9
20180624155813 64 177 3.0 6.0 0.00 0.00 0.00 52 1016.3
20180624155411 64 108 3.0 6.0 0.00 0.00 0.00 53 1016.3
20180624155045 64 94 4.0 7.0 0.00 0.00 0.00 52 1016.3
20180624155010 64 94 4.0 7.0 0.00 0.00 0.00 52 1016.3
20180624154810 64 107 2.0 8.0 0.00 0.00 0.00 52 1015.9
20180624154618 64 128 4.0 6.0 0.00 0.00 0.00 52 1016.3
20180624154616 64 128 4.0 6.0 0.00 0.00 0.00 52 1016.3
20180624154609 64 128 4.0 6.0 0.00 0.00 0.00 52 1016.3
20180624154215 64 135 1.0 4.0 0.00 0.00 0.00 52 1016.3
20180624154208 64 135 1.0 4.0 0.00 0.00 0.00 52 1016.3
20180624154025 64 128 3.0 6.0 0.00 0.00 0.00 52 1015.8
20180624153842 63 180 2.0 3.0 0.00 0.00 0.00 52 1015.6
20180624153814 64 180 4.0 6.0 0.00 0.00 0.00 53 1016.2
20180624153809 64 180 4.0 6.0 0.00 0.00 0.00 53 1016.2
20180624153806 64 180 4.0 6.0 0.00 0.00 0.00 53 1016.2
20180624153750 64 177 3.0 4.0 0.00 0.00 0.00 52 1015.8
20180624153626 63 139 2.0 4.0 0.00 0.00 0.00 52 1015.7
20180624153512 63 99 3.0 5.0 0.00 0.00 0.00 52 1015.6
20180624153407 63 180 2.0 3.0 0.00 0.00 0.00 52 1015.6
20180624153405 64 135 4.0 6.0 0.00 0.00 0.00 53 1016.2
20180624152630 63 186 3.0 4.0 0.00 0.00 0.00 52 1015.5
20180624152602 64 105 3.0 4.0 0.00 0.00 0.00 52 1016.1
20180624152355 63 177 4.0 5.0 0.00 0.00 0.00 52 1015.4
20180624152206 64 180 4.0 6.0 0.00 0.00 0.00 52 1016.0
20180624152204 64 180 4.0 6.0 0.00 0.00 0.00 52 1016.0
20180624152201 64 180 4.0 6.0 0.00 0.00 0.00 52 1016.0
20180624152028 63 184 2.0 6.0 0.00 0.00 0.00 52 1015.3
20180624151851 63 175 2.0 4.0 0.00 0.00 0.00 52 1015.3
20180624151802 63 121 3.0 5.0 0.00 0.00 0.00 52 1015.9
20180624151800 63 121 3.0 5.0 0.00 0.00 0.00 52 1015.9
20180624151753 62 173 2.0 3.0 0.00 0.00 0.00 52 1015.3
20180624151555 62 119 2.0 5.0 0.00 0.00 0.00 52 1015.3
20180624151358 64 107 2.0 8.0 0.00 0.00 0.00 52 1015.9
20180624151153 62 168 3.0 4.0 0.00 0.00 0.00 52 1015.2
20180624150720 62 180 0.0 3.0 0.00 0.00 0.00 52 1015.2
20180624150558 64 128 3.0 6.0 0.00 0.00 0.00 52 1015.8
20180624150556 64 128 3.0 6.0 0.00 0.00 0.00 52 1015.8
20180624150339 63 180 2.0 3.0 0.00 0.00 0.00 52 1015.6
20180624150154 64 177 3.0 4.0 0.00 0.00 0.00 52 1015.8
20180624145753 63 139 2.0 4.0 0.00 0.00 0.00 52 1015.7
20180624145352 63 99 3.0 5.0 0.00 0.00 0.00 52 1015.6
20180624144951 63 180 2.0 3.0 0.00 0.00 0.00 52 1015.6
20180624144911 62 90 2.0 5.0 0.00 0.00 0.00 52 1015.1
20180624144549 63 171 2.0 7.0 0.00 0.00 0.00 52 1015.4
20180624144324 62 96 3.0 4.0 0.00 0.00 0.00 52 1015.1
20180624144236 62 103 2.0 3.0 0.00 0.00 0.00 52 1015.1
20180624144152 63 186 3.0 4.0 0.00 0.00 0.00 52 1015.5
20180624144150 63 186 3.0 4.0 0.00 0.00 0.00 52 1015.5
20180624144148 63 186 3.0 4.0 0.00 0.00 0.00 52 1015.5
20180624143747 63 177 4.0 5.0 0.00 0.00 0.00 52 1015.4
20180624143349 63 189 4.0 4.0 0.00 0.00 0.00 52 1015.3
20180624143345 63 189 4.0 4.0 0.00 0.00 0.00 52 1015.3
20180624143342 62 135 2.0 4.0 0.00 0.00 0.00 52 1015.0
20180624142955 62 117 1.0 3.0 0.00 0.00 0.00 52 1015.0
20180624142944 63 184 2.0 6.0 0.00 0.00 0.00 52 1015.3
20180624142642 62 189 1.0 5.0 0.00 0.00 0.00 52 1015.0
20180624142543 63 175 2.0 4.0 0.00 0.00 0.00 52 1015.3
20180624142253 62 128 3.0 5.0 0.00 0.00 0.00 52 1015.0
20180624142141 62 173 2.0 3.0 0.00 0.00 0.00 52 1015.3
20180624141810 62 164 4.0 4.0 0.00 0.00 0.00 52 1015.1
20180624141745 62 119 2.0 5.0 0.00 0.00 0.00 52 1015.3
20180624141743 62 119 2.0 5.0 0.00 0.00 0.00 52 1015.3
20180624141740 62 119 2.0 5.0 0.00 0.00 0.00 52 1015.3
20180624141656 62 130 1.0 4.0 0.00 0.00 0.00 52 1014.9
20180624141524 62 128 2.0 3.0 0.00 0.00 0.00 52 1014.9
20180624141343 62 168 3.0 4.0 0.00 0.00 0.00 52 1015.2
20180624141339 62 168 3.0 4.0 0.00 0.00 0.00 52 1015.2
20180624141208 62 126 3.0 5.0 0.00 0.00 0.00 52 1014.9
20180624140940 62 180 0.0 3.0 0.00 0.00 0.00 52 1015.2
20180624140938 62 180 0.0 3.0 0.00 0.00 0.00 52 1015.2
20180624140536 62 180 3.0 4.0 0.00 0.00 0.00 52 1015.2
20180624140500 62 128 4.0 4.0 0.00 0.00 0.00 52 1014.8
20180624140140 62 90 2.0 5.0 0.00 0.00 0.00 52 1015.1
20180624140138 62 157 4.0 4.0 0.00 0.00 0.00 52 1014.7
20180624140135 62 90 2.0 5.0 0.00 0.00 0.00 52 1015.1
20180624135814 62 146 1.0 5.0 0.00 0.00 0.00 52 1014.7
20180624135812 62 103 2.0 3.0 0.00 0.00 0.00 52 1015.1
20180624135733 62 90 1.0 3.0 0.00 0.00 0.00 52 1015.1
20180624135332 62 96 3.0 4.0 0.00 0.00 0.00 52 1015.1
20180624134936 62 103 2.0 3.0 0.00 0.00 0.00 52 1015.1
20180624134931 62 103 2.0 3.0 0.00 0.00 0.00 52 1015.1
20180624134752 62 180 1.0 5.0 0.00 0.00 0.00 52 1014.7
20180624134530 62 117 1.0 2.0 0.00 0.00 0.00 52 1015.0
20180624134128 62 135 2.0 4.0 0.00 0.00 0.00 52 1015.0
20180624133727 62 117 1.0 3.0 0.00 0.00 0.00 52 1015.0
20180624133325 62 189 1.0 5.0 0.00 0.00 0.00 52 1015.0
20180624133316 62 180 3.0 6.0 0.00 0.00 0.00 52 1014.6
20180624132924 62 128 3.0 5.0 0.00 0.00 0.00 52 1015.0
20180624132525 62 164 4.0 4.0 0.00 0.00 0.00 52 1015.1
20180624132523 62 164 4.0 4.0 0.00 0.00 0.00 52 1015.1
20180624132124 62 166 1.0 3.0 0.00 0.00 0.00 52 1014.6
20180624132122 62 130 1.0 4.0 0.00 0.00 0.00 52 1014.9
20180624131726 62 128 2.0 3.0 0.00 0.00 0.00 52 1014.9
20180624131721 62 128 2.0 3.0 0.00 0.00 0.00 52 1014.9
20180624131356 62 123 1.0 5.0 0.00 0.00 0.00 52 1014.5
20180624131327 62 126 3.0 5.0 0.00 0.00 0.00 52 1014.9
20180624131319 62 126 3.0 5.0 0.00 0.00 0.00 52 1014.9
20180624131237 62 112 1.0 4.0 0.00 0.00 0.00 51 1014.5
20180624131109 62 172 2.0 5.0 0.00 0.00 0.00 51 1014.5
20180624130959 62 96 2.0 3.0 0.00 0.00 0.00 51 1014.4
20180624130917 62 123 5.0 5.0 0.00 0.00 0.00 52 1014.8
20180624130736 62 173 2.0 3.0 0.00 0.00 0.00 51 1014.4
20180624130516 62 128 4.0 4.0 0.00 0.00 0.00 52 1014.8
20180624130336 62 135 0.0 3.0 0.00 0.00 0.00 51 1014.3
20180624130120 62 157 4.0 4.0 0.00 0.00 0.00 52 1014.7
20180624130115 62 157 4.0 4.0 0.00 0.00 0.00 52 1014.7
20180624125821 62 146 1.0 5.0 0.00 0.00 0.00 52 1014.7
20180624125721 62 146 1.0 5.0 0.00 0.00 0.00 52 1014.7
20180624125716 62 146 1.0 5.0 0.00 0.00 0.00 52 1014.7
20180624125714 62 146 1.0 5.0 0.00 0.00 0.00 52 1014.7
20180624125356 62 110 1.0 5.0 0.00 0.00 0.00 51 1014.2
20180624125316 62 180 1.0 5.0 0.00 0.00 0.00 52 1014.7
20180624125313 62 180 1.0 5.0 0.00 0.00 0.00 52 1014.7
20180624125144 62 180 3.0 5.0 0.00 0.00 0.00 51 1014.1
20180624125056 62 141 3.0 4.0 0.00 0.00 0.00 51 1014.3
20180624124920 62 135 0.0 3.0 0.00 0.00 0.00 51 1014.3
20180624124808 62 96 3.0 3.0 0.00 0.00 0.00 51 1014.1
20180624124602 62 180 3.0 5.0 0.00 0.00 0.00 51 1014.1
20180624124515 62 180 3.0 6.0 0.00 0.00 0.00 52 1014.6
20180624124512 62 180 3.0 6.0 0.00 0.00 0.00 52 1014.6
20180624124509 62 180 3.0 6.0 0.00 0.00 0.00 52 1014.6
20180624124321 62 168 5.0 6.0 0.00 0.00 0.00 51 1014.1
20180624124114 62 166 1.0 3.0 0.00 0.00 0.00 52 1014.6
20180624124112 62 166 1.0 3.0 0.00 0.00 0.00 52 1014.6
20180624124108 62 166 1.0 3.0 0.00 0.00 0.00 52 1014.6
20180624123946 62 162 2.0 6.0 0.00 0.00 0.00 51 1014.1
20180624123858 62 112 1.0 4.0 0.00 0.00 0.00 51 1014.5
20180624123855 62 155 2.0 3.0 0.00 0.00 0.00 51 1014.1
20180624123707 62 123 1.0 5.0 0.00 0.00 0.00 52 1014.5
20180624123306 62 112 1.0 4.0 0.00 0.00 0.00 51 1014.5
20180624123258 62 117 4.0 4.0 0.00 0.00 0.00 51 1014.1
20180624122942 62 172 2.0 5.0 0.00 0.00 0.00 51 1014.5
20180624122905 62 172 2.0 5.0 0.00 0.00 0.00 51 1014.5
20180624122505 62 96 2.0 3.0 0.00 0.00 0.00 51 1014.4
20180624122449 62 166 4.0 4.0 0.00 0.00 0.00 51 1014.0
20180624122101 62 177 1.0 2.0 0.00 0.00 0.00 51 1014.4
20180624121748 62 166 3.0 5.0 0.00 0.00 0.00 51 1013.9
20180624121705 62 173 2.0 3.0 0.00 0.00 0.00 51 1014.4
20180624121700 62 173 2.0 3.0 0.00 0.00 0.00 51 1014.4
20180624121305 62 171 2.0 5.0 0.00 0.00 0.00 51 1014.0
20180624121303 62 135 0.0 3.0 0.00 0.00 0.00 51 1014.3
20180624121259 62 135 0.0 3.0 0.00 0.00 0.00 51 1014.3
20180624120858 62 177 1.0 3.0 0.00 0.00 0.00 51 1014.3
20180624120825 62 115 2.0 5.0 0.00 0.00 0.00 51 1014.0
20180624120505 62 110 1.0 5.0 0.00 0.00 0.00 51 1014.2
20180624120502 62 110 1.0 5.0 0.00 0.00 0.00 51 1014.2
20180624120457 62 110 1.0 5.0 0.00 0.00 0.00 51 1014.2
20180624120413 62 96 3.0 3.0 0.00 0.00 0.00 51 1014.1
20180624120408 62 180 3.0 5.0 0.00 0.00 0.00 51 1014.1
20180624120055 62 141 3.0 4.0 0.00 0.00 0.00 51 1014.3
20180624115654 62 135 0.0 3.0 0.00 0.00 0.00 51 1014.3
20180624115413 62 114 3.0 4.0 0.00 0.00 0.00 51 1013.9
20180624115252 62 96 3.0 3.0 0.00 0.00 0.00 51 1014.1
20180624114851 62 180 3.0 5.0 0.00 0.00 0.00 51 1014.1
20180624114809 62 130 2.0 3.0 0.00 0.00 0.00 51 1013.8
20180624114452 62 168 5.0 6.0 0.00 0.00 0.00 51 1014.1
20180624114450 62 168 5.0 6.0 0.00 0.00 0.00 51 1014.1
20180624114423 62 130 2.0 3.0 0.00 0.00 0.00 51 1013.8
20180624114052 62 162 2.0 6.0 0.00 0.00 0.00 51 1014.1
20180624114049 62 162 2.0 6.0 0.00 0.00 0.00 51 1014.1
20180624114020 62 155 2.0 3.0 0.00 0.00 0.00 51 1014.1
20180624113647 62 155 2.0 3.0 0.00 0.00 0.00 51 1014.1
20180624113607 62 123 0.0 2.0 0.00 0.00 0.00 51 1013.7
20180624113440 62 166 2.0 6.0 0.00 0.00 0.00 51 1013.9
20180624113246 62 157 1.0 4.0 0.00 0.00 0.00 51 1014.1
20180624113127 62 175 4.0 8.0 0.00 0.00 0.00 51 1013.8
20180624112845 62 117 4.0 4.0 0.00 0.00 0.00 51 1014.1
20180624112443 62 105 1.0 4.0 0.00 0.00 0.00 51 1014.1
20180624112135 62 139 1.0 9.0 0.00 0.00 0.00 51 1013.7
20180624112042 62 166 4.0 4.0 0.00 0.00 0.00 51 1014.0
20180624111648 62 166 3.0 5.0 0.00 0.00 0.00 51 1013.9
20180624111643 62 166 3.0 5.0 0.00 0.00 0.00 51 1013.9
20180624111641 62 166 3.0 5.0 0.00 0.00 0.00 51 1013.9
20180624111242 62 171 2.0 5.0 0.00 0.00 0.00 51 1014.0
20180624111239 62 171 2.0 5.0 0.00 0.00 0.00 51 1014.0
20180624111232 62 94 1.0 6.0 0.00 0.00 0.00 51 1014.0
20180624110856 62 99 4.0 6.0 0.00 0.00 0.00 51 1013.9
20180624110840 62 115 2.0 5.0 0.00 0.00 0.00 51 1014.0
20180624110838 62 115 2.0 5.0 0.00 0.00 0.00 51 1014.0
20180624110534 62 135 7.0 7.0 0.00 0.00 0.00 51 1013.9
20180624110437 62 173 4.0 5.0 0.00 0.00 0.00 51 1013.9
20180624110114 62 114 3.0 4.0 0.00 0.00 0.00 51 1013.9
20180624110042 62 114 3.0 4.0 0.00 0.00 0.00 51 1013.9
20180624110035 62 114 3.0 4.0 0.00 0.00 0.00 51 1013.9
20180624105917 62 135 9.0 11.0 0.00 0.00 0.00 50 1013.8
20180624105915 62 130 2.0 3.0 0.00 0.00 0.00 51 1013.8
20180624105637 62 130 2.0 4.0 0.00 0.00 0.00 51 1013.8
20180624105634 62 130 2.0 4.0 0.00 0.00 0.00 51 1013.8
20180624105233 62 130 5.0 10.0 0.00 0.00 0.00 51 1013.8
20180624104835 62 157 1.0 7.0 0.00 0.00 0.00 50 1013.9
20180624104832 62 130 2.0 3.0 0.00 0.00 0.00 51 1013.8
20180624104506 62 121 2.0 7.0 0.00 0.00 0.00 50 1013.9
20180624104433 62 123 0.0 2.0 0.00 0.00 0.00 51 1013.7
20180624104430 62 123 0.0 2.0 0.00 0.00 0.00 51 1013.7
20180624104414 62 166 2.0 6.0 0.00 0.00 0.00 51 1013.9
20180624104029 62 175 4.0 8.0 0.00 0.00 0.00 51 1013.8
20180624103904 62 153 1.0 5.0 0.00 0.00 0.00 50 1013.9
20180624103628 62 180 8.0 8.0 0.00 0.00 0.00 51 1013.8
20180624103226 62 139 1.0 9.0 0.00 0.00 0.00 51 1013.7
20180624102925 63 180 5.0 5.0 0.00 0.00 0.00 50 1013.8
20180624102825 62 180 7.0 7.0 0.00 0.00 0.00 51 1013.8
20180624102024 62 166 2.0 6.0 0.00 0.00 0.00 51 1013.9
20180624102022 62 166 2.0 6.0 0.00 0.00 0.00 51 1013.9
20180624101624 62 94 1.0 6.0 0.00 0.00 0.00 51 1014.0
20180624101621 62 94 1.0 6.0 0.00 0.00 0.00 51 1014.0
20180624101430 63 171 1.0 3.0 0.00 0.00 0.00 50 1014.0
20180624101420 62 173 2.0 6.0 0.00 0.00 0.00 50 1013.8
20180624101304 62 180 4.0 6.0 0.00 0.00 0.00 50 1013.8
20180624101223 62 99 4.0 6.0 0.00 0.00 0.00 51 1013.9
20180624101220 62 99 4.0 6.0 0.00 0.00 0.00 51 1013.9
20180624101036 63 171 4.0 8.0 0.00 0.00 0.00 50 1014.0
20180624100821 62 135 7.0 7.0 0.00 0.00 0.00 51 1013.9
20180624100819 62 135 7.0 7.0 0.00 0.00 0.00 51 1013.9
20180624100637 63 180 2.0 4.0 0.00 0.00 0.00 50 1014.0
20180624100036 62 153 3.0 5.0 0.00 0.00 0.00 50 1014.0
20180624100018 62 135 9.0 11.0 0.00 0.00 0.00 50 1013.8
20180624095616 62 157 1.0 7.0 0.00 0.00 0.00 50 1013.9
20180624095614 62 157 1.0 7.0 0.00 0.00 0.00 50 1013.9
20180624095220 62 121 2.0 7.0 0.00 0.00 0.00 50 1013.9
20180624095215 62 121 2.0 7.0 0.00 0.00 0.00 50 1013.9
20180624095213 62 121 2.0 7.0 0.00 0.00 0.00 50 1013.9
20180624095042 62 132 4.0 5.0 0.00 0.00 0.00 50 1014.1
20180624094904 62 123 2.0 5.0 0.00 0.00 0.00 50 1014.1
20180624094819 62 153 1.0 5.0 0.00 0.00 0.00 50 1013.9
20180624094815 62 153 1.0 5.0 0.00 0.00 0.00 50 1013.9
20180624094812 62 153 1.0 5.0 0.00 0.00 0.00 50 1013.9
20180624094744 62 90 3.0 7.0 0.00 0.00 0.00 50 1014.0
20180624094543 62 90 5.0 6.0 0.00 0.00 0.00 50 1014.0
20180624094418 63 180 5.0 5.0 0.00 0.00 0.00 50 1013.8
20180624094413 63 180 5.0 5.0 0.00 0.00 0.00 50 1013.8
20180624094411 63 180 5.0 5.0 0.00 0.00 0.00 50 1013.8
20180624094105 62 128 3.0 4.0 0.00 0.00 0.00 50 1014.0
20180624093633 63 171 1.0 3.0 0.00 0.00 0.00 50 1014.0
20180624093606 62 173 2.0 6.0 0.00 0.00 0.00 50 1013.8
20180624093602 62 173 2.0 6.0 0.00 0.00 0.00 50 1013.8
20180624093202 62 180 4.0 6.0 0.00 0.00 0.00 50 1013.8
20180624093200 62 180 4.0 6.0 0.00 0.00 0.00 50 1013.8
20180624093002 63 83 4.0 4.0 0.00 0.00 0.00 49 1013.9
20180624092804 62 180 4.0 6.0 0.00 0.00 0.00 50 1013.9
20180624092759 62 180 4.0 6.0 0.00 0.00 0.00 50 1013.9
20180624092358 63 171 4.0 8.0 0.00 0.00 0.00 50 1014.0
20180624092000 63 171 1.0 3.0 0.00 0.00 0.00 50 1014.0
20180624091957 63 171 1.0 3.0 0.00 0.00 0.00 50 1014.0
20180624091919 62 126 4.0 5.0 0.00 0.00 0.00 50 1014.0
20180624091752 63 94 3.0 5.0 0.00 0.00 0.00 50 1014.1
20180624091636 63 83 4.0 4.0 0.00 0.00 0.00 49 1013.9
20180624091428 63 90 2.0 4.0 0.00 0.00 0.00 49 1014.0
20180624091201 62 153 3.0 5.0 0.00 0.00 0.00 50 1014.0
20180624091157 62 153 3.0 5.0 0.00 0.00 0.00 50 1014.0
20180624091154 62 153 3.0 5.0 0.00 0.00 0.00 50 1014.0
20180624091056 63 119 1.0 2.0 0.00 0.00 0.00 49 1014.0
20180624090755 62 171 2.0 5.0 0.00 0.00 0.00 50 1014.0
20180624090752 62 171 2.0 5.0 0.00 0.00 0.00 50 1014.0
20180624090423 62 144 1.0 4.0 0.00 0.00 0.00 50 1014.0
20180624090402 63 180 3.0 3.0 0.00 0.00 0.00 49 1014.0
20180624090354 62 144 1.0 4.0 0.00 0.00 0.00 50 1014.0
20180624090351 62 144 1.0 4.0 0.00 0.00 0.00 50 1014.0
20180624085953 62 132 4.0 5.0 0.00 0.00 0.00 50 1014.1
20180624085950 62 132 4.0 5.0 0.00 0.00 0.00 50 1014.1
20180624085600 63 180 2.0 3.0 0.00 0.00 0.00 49 1014.0
20180624085552 62 123 2.0 5.0 0.00 0.00 0.00 50 1014.1
20180624085549 62 123 2.0 5.0 0.00 0.00 0.00 50 1014.1
20180624085153 62 90 3.0 7.0 0.00 0.00 0.00 50 1014.0
20180624085148 62 90 3.0 7.0 0.00 0.00 0.00 50 1014.0
20180624084759 62 90 5.0 6.0 0.00 0.00 0.00 50 1014.0
20180624084757 62 90 5.0 6.0 0.00 0.00 0.00 50 1014.0
20180624084752 63 193 4.0 4.0 0.00 0.00 0.00 49 1014.0
20180624084749 62 90 5.0 6.0 0.00 0.00 0.00 50 1014.0
20180624084746 62 90 5.0 6.0 0.00 0.00 0.00 50 1014.0
20180624084350 62 128 3.0 4.0 0.00 0.00 0.00 50 1014.0
20180624084346 62 128 3.0 4.0 0.00 0.00 0.00 50 1014.0
20180624084344 62 128 3.0 4.0 0.00 0.00 0.00 50 1014.0
20180624084326 63 135 0.0 5.0 0.00 0.00 0.00 49 1014.1
20180624083945 62 132 1.0 2.0 0.00 0.00 0.00 50 1014.0
20180624083943 62 132 1.0 2.0 0.00 0.00 0.00 50 1014.0
20180624083845 63 164 2.0 4.0 0.00 0.00 0.00 49 1014.1
20180624083643 63 83 4.0 4.0 0.00 0.00 0.00 49 1013.9
20180624083641 63 177 3.0 5.0 0.00 0.00 0.00 49 1014.2
20180624083545 62 96 4.0 5.0 0.00 0.00 0.00 50 1014.0
20180624083542 62 96 4.0 5.0 0.00 0.00 0.00 50 1014.0
20180624083144 62 117 3.0 5.0 0.00 0.00 0.00 50 1014.0
20180624083141 62 117 3.0 5.0 0.00 0.00 0.00 50 1014.0
20180624082740 62 126 4.0 5.0 0.00 0.00 0.00 50 1014.0
20180624082737 63 180 5.0 5.0 0.00 0.00 0.00 49 1014.2
20180624082343 63 94 3.0 5.0 0.00 0.00 0.00 50 1014.1
20180624082339 63 94 3.0 5.0 0.00 0.00 0.00 50 1014.1
20180624082211 63 189 5.0 6.0 0.00 0.00 0.00 49 1014.2
20180624081936 63 83 4.0 4.0 0.00 0.00 0.00 49 1013.9
20180624081552 63 90 2.0 4.0 0.00 0.00 0.00 49 1014.0
20180624081535 63 90 2.0 4.0 0.00 0.00 0.00 49 1014.0
20180624081211 63 162 1.0 5.0 0.00 0.00 0.00 49 1014.2
20180624081145 63 119 1.0 2.0 0.00 0.00 0.00 49 1014.0
20180624081136 63 119 1.0 2.0 0.00 0.00 0.00 49 1014.0
20180624081134 63 119 1.0 2.0 0.00 0.00 0.00 49 1014.0
20180624080733 63 162 0.0 3.0 0.00 0.00 0.00 49 1014.0
20180624080332 63 180 3.0 3.0 0.00 0.00 0.00 49 1014.0
20180624075934 63 135 1.0 3.0 0.00 0.00 0.00 49 1014.0
20180624075930 63 135 1.0 3.0 0.00 0.00 0.00 49 1014.0
20180624075853 63 135 0.0 6.0 0.00 0.00 0.00 49 1014.2
20180624075529 63 180 2.0 3.0 0.00 0.00 0.00 49 1014.0
20180624075133 63 146 1.0 5.0 0.00 0.00 0.00 49 1014.1
20180624075127 63 146 1.0 5.0 0.00 0.00 0.00 49 1014.1
20180624074739 62 180 3.0 6.0 0.00 0.00 0.00 49 1014.2
20180624074726 63 193 4.0 4.0 0.00 0.00 0.00 49 1014.0
20180624074542 62 144 1.0 7.0 0.00 0.00 0.00 49 1014.2
20180624074451 63 90 2.0 5.0 0.00 0.00 0.00 49 1014.2
20180624074325 62 157 0.0 6.0 0.00 0.00 0.00 49 1014.3
20180624073940 62 132 5.0 6.0 0.00 0.00 0.00 49 1014.3
20180624073928 63 164 2.0 4.0 0.00 0.00 0.00 49 1014.1
20180624073926 63 164 2.0 4.0 0.00 0.00 0.00 49 1014.1
20180624073924 63 164 2.0 4.0 0.00 0.00 0.00 49 1014.1
20180624073632 63 177 3.0 5.0 0.00 0.00 0.00 49 1014.2
20180624073544 62 162 3.0 8.0 0.00 0.00 0.00 49 1014.4
20180624073522 63 177 3.0 5.0 0.00 0.00 0.00 49 1014.2
20180624073123 63 180 5.0 5.0 0.00 0.00 0.00 49 1014.2
20180624073121 63 180 5.0 5.0 0.00 0.00 0.00 49 1014.2
20180624072719 63 189 5.0 6.0 0.00 0.00 0.00 49 1014.2
20180624072444 62 110 8.0 8.0 0.00 0.00 0.00 49 1014.4
20180624072321 63 180 4.0 4.0 0.00 0.00 0.00 49 1014.2
20180624072318 63 180 4.0 4.0 0.00 0.00 0.00 49 1014.2
20180624072044 63 99 3.0 6.0 0.00 0.00 0.00 49 1014.2
20180624071917 63 103 0.0 4.0 0.00 0.00 0.00 49 1014.2
20180624071738 63 117 1.0 6.0 0.00 0.00 0.00 49 1014.3
20180624071635 63 117 6.0 6.0 0.00 0.00 0.00 49 1014.2
20180624071532 63 162 1.0 5.0 0.00 0.00 0.00 49 1014.2
20180624071518 63 162 1.0 5.0 0.00 0.00 0.00 49 1014.2
20180624071516 63 162 1.0 5.0 0.00 0.00 0.00 49 1014.2
20180624071237 63 130 3.0 4.0 0.00 0.00 0.00 48 1014.3
20180624071114 63 130 5.0 5.0 0.00 0.00 0.00 49 1014.2
20180624070856 63 105 4.0 4.0 0.00 0.00 0.00 48 1014.3
20180624070715 63 135 0.0 6.0 0.00 0.00 0.00 49 1014.2
20180624070713 63 135 0.0 6.0 0.00 0.00 0.00 49 1014.2
20180624070314 63 132 4.0 4.0 0.00 0.00 0.00 49 1014.2
20180624070312 63 132 4.0 4.0 0.00 0.00 0.00 49 1014.2
20180624070200 62 175 3.0 5.0 0.00 0.00 0.00 48 1014.2
20180624065913 62 180 3.0 6.0 0.00 0.00 0.00 49 1014.2
20180624065910 62 180 3.0 6.0 0.00 0.00 0.00 49 1014.2
20180624065512 62 144 1.0 7.0 0.00 0.00 0.00 49 1014.2
20180624065509 62 144 1.0 7.0 0.00 0.00 0.00 49 1014.2
20180624065108 63 90 2.0 5.0 0.00 0.00 0.00 49 1014.2
20180624064731 63 137 2.0 4.0 0.00 0.00 0.00 48 1014.2
20180624064710 62 157 0.0 6.0 0.00 0.00 0.00 49 1014.3
20180624064706 62 157 0.0 6.0 0.00 0.00 0.00 49 1014.3
20180624064454 62 177 4.0 4.0 0.00 0.00 0.00 48 1014.3
20180624064357 62 157 2.0 4.0 0.00 0.00 0.00 47 1014.3
20180624064314 62 132 5.0 6.0 0.00 0.00 0.00 49 1014.3
20180624064307 62 132 5.0 6.0 0.00 0.00 0.00 49 1014.3
20180624064305 62 132 5.0 6.0 0.00 0.00 0.00 49 1014.3
20180624063904 62 162 3.0 8.0 0.00 0.00 0.00 49 1014.4
20180624063631 62 175 2.0 3.0 0.00 0.00 0.00 47 1014.3
20180624063505 62 110 8.0 8.0 0.00 0.00 0.00 49 1014.4
20180624063503 62 110 8.0 8.0 0.00 0.00 0.00 49 1014.4
20180624063104 63 99 3.0 6.0 0.00 0.00 0.00 49 1014.2
20180624063101 63 99 3.0 6.0 0.00 0.00 0.00 49 1014.2
20180624062702 63 117 1.0 6.0 0.00 0.00 0.00 49 1014.3
20180624062700 63 117 1.0 6.0 0.00 0.00 0.00 49 1014.3
20180624062259 63 117 6.0 6.0 0.00 0.00 0.00 49 1014.2
20180624061857 63 150 1.0 5.0 0.00 0.00 0.00 48 1014.3
20180624061750 63 132 1.0 4.0 0.00 0.00 0.00 46 1014.2
20180624061745 62 177 2.0 6.0 0.00 0.00 0.00 47 1014.2
20180624061610 62 135 2.0 4.0 0.00 0.00 0.00 47 1014.2
20180624061458 63 130 3.0 4.0 0.00 0.00 0.00 48 1014.3
20180624061456 63 130 3.0 4.0 0.00 0.00 0.00 48 1014.3
20180624061436 62 90 0.0 4.0 0.00 0.00 0.00 46 1014.2
20180624061334 63 144 2.0 4.0 0.00 0.00 0.00 46 1014.2
20180624061158 63 132 1.0 6.0 0.00 0.00 0.00 46 1014.2
20180624061055 63 105 4.0 4.0 0.00 0.00 0.00 48 1014.3
20180624061037 63 132 1.0 4.0 0.00 0.00 0.00 46 1014.2
20180624060735 63 180 0.0 3.0 0.00 0.00 0.00 46 1014.2
20180624060655 62 175 3.0 5.0 0.00 0.00 0.00 48 1014.2
20180624060653 62 175 3.0 5.0 0.00 0.00 0.00 48 1014.2
20180624060423 63 144 0.0 4.0 0.00 0.00 0.00 45 1014.0
20180624060252 62 171 2.0 5.0 0.00 0.00 0.00 48 1014.2
20180624055853 63 137 2.0 4.0 0.00 0.00 0.00 48 1014.2
20180624055851 63 137 2.0 4.0 0.00 0.00 0.00 48 1014.2
20180624055449 62 177 4.0 4.0 0.00 0.00 0.00 48 1014.3
20180624055114 63 162 2.0 3.0 0.00 0.00 0.00 45 1014.1
20180624055048 62 157 2.0 4.0 0.00 0.00 0.00 47 1014.3
20180624054647 62 180 2.0 4.0 0.00 0.00 0.00 47 1014.3
20180624054248 62 175 2.0 3.0 0.00 0.00 0.00 47 1014.3
20180624054246 62 175 2.0 3.0 0.00 0.00 0.00 47 1014.3
20180624054230 64 173 5.0 5.0 0.00 0.00 0.00 45 1014.0
20180624053958 64 153 2.0 3.0 0.00 0.00 0.00 44 1013.9
20180624053850 63 132 1.0 4.0 0.00 0.00 0.00 46 1014.2
20180624053847 62 177 2.0 6.0 0.00 0.00 0.00 47 1014.2
20180624053845 62 177 2.0 6.0 0.00 0.00 0.00 47 1014.2
20180624053446 64 175 3.0 5.0 0.00 0.00 0.00 44 1013.8
20180624053443 62 135 2.0 4.0 0.00 0.00 0.00 47 1014.2
20180624053208 64 162 3.0 5.0 0.00 0.00 0.00 44 1013.8
20180624053046 62 90 0.0 4.0 0.00 0.00 0.00 46 1014.2
20180624053041 62 90 0.0 4.0 0.00 0.00 0.00 46 1014.2
20180624052827 64 112 1.0 4.0 0.00 0.00 0.00 43 1013.8
20180624052646 63 144 2.0 4.0 0.00 0.00 0.00 46 1014.2
20180624052640 63 144 2.0 4.0 0.00 0.00 0.00 46 1014.2
20180624052429 65 180 4.0 7.0 0.00 0.00 0.00 43 1013.8
20180624052239 63 132 1.0 6.0 0.00 0.00 0.00 46 1014.2
20180624051855 65 182 6.0 6.0 0.00 0.00 0.00 43 1013.7
20180624051838 63 132 1.0 4.0 0.00 0.00 0.00 46 1014.2
20180624051526 65 180 3.0 4.0 0.00 0.00 0.00 42 1013.6
20180624051513 63 180 0.0 3.0 0.00 0.00 0.00 46 1014.2
20180624051443 63 180 0.0 3.0 0.00 0.00 0.00 46 1014.2
20180624051436 63 180 0.0 3.0 0.00 0.00 0.00 46 1014.2
20180624051038 63 144 0.0 4.0 0.00 0.00 0.00 45 1014.0
20180624051035 63 144 0.0 4.0 0.00 0.00 0.00 45 1014.0
20180624051030 65 135 0.0 2.0 0.00 0.00 0.00 42 1013.6
20180624050743 66 110 2.0 2.0 0.00 0.00 0.00 42 1013.6
20180624050635 63 162 2.0 3.0 0.00 0.00 0.00 45 1014.1
20180624050633 63 162 2.0 3.0 0.00 0.00 0.00 45 1014.1
20180624050232 63 164 2.0 4.0 0.00 0.00 0.00 45 1014.0
20180624045831 63 83 0.0 5.0 0.00 0.00 0.00 45 1014.1
20180624045702 66 135 0.0 7.0 0.00 0.00 0.00 41 1013.5
20180624045430 64 173 5.0 5.0 0.00 0.00 0.00 45 1014.0
20180624045029 64 150 2.0 4.0 0.00 0.00 0.00 44 1013.9
20180624044629 64 153 2.0 3.0 0.00 0.00 0.00 44 1013.9
20180624044516 66 157 1.0 5.0 0.00 0.00 0.00 41 1013.3
20180624044225 64 175 3.0 5.0 0.00 0.00 0.00 44 1013.8
20180624043824 64 162 3.0 5.0 0.00 0.00 0.00 44 1013.8
20180624043423 64 112 1.0 4.0 0.00 0.00 0.00 43 1013.8
20180624043022 65 180 4.0 7.0 0.00 0.00 0.00 43 1013.8
20180624042621 65 182 6.0 6.0 0.00 0.00 0.00 43 1013.7
20180624042219 65 148 1.0 5.0 0.00 0.00 0.00 42 1013.7
20180624041833 67 146 0.0 5.0 0.00 0.00 0.00 40 1013.4
20180624041817 65 180 3.0 4.0 0.00 0.00 0.00 42 1013.6
20180624041430 67 162 1.0 6.0 0.00 0.00 0.00 40 1013.4
20180624041420 65 135 0.0 2.0 0.00 0.00 0.00 42 1013.6
20180624041416 65 135 0.0 2.0 0.00 0.00 0.00 42 1013.6
20180624041015 66 110 2.0 2.0 0.00 0.00 0.00 42 1013.6
20180624040951 67 110 1.0 6.0 0.00 0.00 0.00 39 1013.4
20180624040632 67 153 2.0 3.0 0.00 0.00 0.00 39 1013.4
20180624040614 66 135 1.0 3.0 0.00 0.00 0.00 41 1013.5
20180624040246 67 159 3.0 7.0 0.00 0.00 0.00 39 1013.4
20180624040213 66 135 0.0 7.0 0.00 0.00 0.00 41 1013.5
20180624035954 67 139 2.0 6.0 0.00 0.00 0.00 38 1013.2
20180624035855 68 171 6.0 6.0 0.00 0.00 0.00 38 1013.2
20180624035811 66 157 1.0 5.0 0.00 0.00 0.00 41 1013.3
20180624035518 68 164 3.0 6.0 0.00 0.00 0.00 37 1013.1
20180624035410 67 108 3.0 4.0 0.00 0.00 0.00 40 1013.4
20180624035220 68 112 1.0 7.0 0.00 0.00 0.00 37 1013.1
20180624035016 67 146 0.0 5.0 0.00 0.00 0.00 40 1013.4
20180624035011 71 184 5.0 9.0 0.00 0.00 0.00 35 1013.0
20180624035008 67 146 0.0 5.0 0.00 0.00 0.00 40 1013.4
20180624034607 67 162 1.0 6.0 0.00 0.00 0.00 40 1013.4
20180624034556 71 180 4.0 7.0 0.00 0.00 0.00 35 1013.0
20180624034458 71 184 5.0 9.0 0.00 0.00 0.00 35 1013.0
20180624034237 72 128 2.0 6.0 0.00 0.00 0.00 35 1013.0
20180624034209 67 110 1.0 6.0 0.00 0.00 0.00 39 1013.4
20180624034206 67 110 1.0 6.0 0.00 0.00 0.00 39 1013.4
20180624033910 72 182 6.0 8.0 0.00 0.00 0.00 35 1012.9
20180624033808 67 153 2.0 3.0 0.00 0.00 0.00 39 1013.4
20180624033805 67 153 2.0 3.0 0.00 0.00 0.00 39 1013.4
20180624033557 67 159 3.0 7.0 0.00 0.00 0.00 39 1013.4
20180624033502 72 200 6.0 8.0 0.00 0.00 0.00 34 1012.9
20180624033403 67 159 3.0 7.0 0.00 0.00 0.00 39 1013.4
20180624033002 67 175 7.0 7.0 0.00 0.00 0.00 38 1013.3
20180624032600 67 139 2.0 6.0 0.00 0.00 0.00 38 1013.2
20180624032401 72 168 7.0 9.0 0.00 0.00 0.00 34 1012.9
20180624032159 68 171 6.0 6.0 0.00 0.00 0.00 38 1013.2
20180624032140 74 189 7.0 10.0 0.00 0.00 0.00 33 1013.0
20180624031758 68 159 3.0 4.0 0.00 0.00 0.00 37 1013.2
20180624031733 73 180 9.0 9.0 0.00 0.00 0.00 34 1012.9
20180624031529 74 182 5.0 9.0 0.00 0.00 0.00 34 1012.9
20180624031416 74 189 7.0 10.0 0.00 0.00 0.00 33 1013.0
20180624031401 68 164 3.0 6.0 0.00 0.00 0.00 37 1013.1
20180624031357 68 164 3.0 6.0 0.00 0.00 0.00 37 1013.1
20180624031236 75 186 9.0 9.0 0.00 0.00 0.00 33 1012.8
20180624030956 68 112 1.0 7.0 0.00 0.00 0.00 37 1013.1
20180624030747 71 184 5.0 9.0 0.00 0.00 0.00 35 1013.0
20180624030554 69 177 6.0 7.0 0.00 0.00 0.00 36 1013.1
20180624030153 69 180 6.0 9.0 0.00 0.00 0.00 36 1013.0
20180624025751 70 180 4.0 8.0 0.00 0.00 0.00 36 1013.0
20180624025427 71 180 4.0 7.0 0.00 0.00 0.00 35 1013.0
20180624025350 71 180 4.0 7.0 0.00 0.00 0.00 35 1013.0
20180624024949 71 184 5.0 9.0 0.00 0.00 0.00 35 1013.0
20180624024626 76 162 5.0 8.0 0.00 0.00 0.00 33 1012.8
20180624024550 72 128 2.0 6.0 0.00 0.00 0.00 35 1013.0
20180624024547 72 128 2.0 6.0 0.00 0.00 0.00 35 1013.0
20180624024453 77 168 4.0 9.0 0.00 0.00 0.00 32 1012.8
20180624024333 77 193 5.0 9.0 0.00 0.00 0.00 32 1012.8
20180624024208 78 191 4.0 7.0 0.00 0.00 0.00 32 1012.8
20180624024146 72 182 6.0 8.0 0.00 0.00 0.00 35 1012.9
20180624024058 78 184 4.0 8.0 0.00 0.00 0.00 32 1012.8
20180624023923 78 211 6.0 11.0 0.00 0.00 0.00 32 1012.7
20180624023745 72 200 6.0 8.0 0.00 0.00 0.00 34 1012.9
20180624023521 79 198 9.0 11.0 0.00 0.00 0.00 31 1012.7
20180624023346 72 168 7.0 9.0 0.00 0.00 0.00 34 1012.9
20180624023343 72 168 7.0 9.0 0.00 0.00 0.00 34 1012.9
20180624023245 74 189 7.0 10.0 0.00 0.00 0.00 33 1013.0
20180624022942 73 180 9.0 9.0 0.00 0.00 0.00 34 1012.9
20180624022715 79 180 8.0 9.0 0.00 0.00 0.00 31 1012.7
20180624022541 74 182 5.0 9.0 0.00 0.00 0.00 34 1012.9
20180624022139 74 189 7.0 10.0 0.00 0.00 0.00 33 1013.0
20180624021744 75 186 9.0 9.0 0.00 0.00 0.00 33 1012.8
20180624021738 75 186 9.0 9.0 0.00 0.00 0.00 33 1012.8
20180624021709 80 171 7.0 9.0 0.00 0.00 0.00 31 1012.7
20180624021356 80 193 6.0 10.0 0.00 0.00 0.00 31 1012.8
20180624021343 75 180 7.0 9.0 0.00 0.00 0.00 33 1012.9
20180624021337 75 180 7.0 9.0 0.00 0.00 0.00 33 1012.9
20180624021043 80 182 9.0 10.0 0.00 0.00 0.00 31 1012.6
20180624020833 78 184 4.0 8.0 0.00 0.00 0.00 32 1012.8
20180624020606 76 162 5.0 8.0 0.00 0.00 0.00 33 1012.8
20180624020534 76 162 5.0 8.0 0.00 0.00 0.00 33 1012.8
20180624020529 81 177 9.0 12.0 0.00 0.00 0.00 31 1012.6
20180624020133 77 168 4.0 9.0 0.00 0.00 0.00 32 1012.8
20180624015734 77 193 5.0 9.0 0.00 0.00 0.00 32 1012.8
20180624015330 78 191 4.0 7.0 0.00 0.00 0.00 32 1012.8
20180624015208 81 216 3.0 11.0 0.00 0.00 0.00 31 1012.7
20180624014929 78 184 4.0 8.0 0.00 0.00 0.00 32 1012.8
20180624014528 78 211 6.0 11.0 0.00 0.00 0.00 32 1012.7
20180624014422 81 193 7.0 13.0 0.00 0.00 0.00 31 1012.7
20180624014129 79 198 9.0 11.0 0.00 0.00 0.00 31 1012.7
20180624014127 79 198 9.0 11.0 0.00 0.00 0.00 31 1012.7
20180624013933 82 164 4.0 9.0 0.00 0.00 0.00 31 1012.7
20180624013725 79 180 8.0 9.0 0.00 0.00 0.00 31 1012.7
20180624013636 83 171 7.0 7.0 0.00 0.00 0.00 30 1012.6
20180624013326 80 171 7.0 9.0 0.00 0.00 0.00 31 1012.7
20180624013324 80 171 7.0 9.0 0.00 0.00 0.00 31 1012.7
20180624013201 83 180 8.0 9.0 0.00 0.00 0.00 30 1012.6
20180624012926 80 193 6.0 10.0 0.00 0.00 0.00 31 1012.8
20180624012922 80 193 6.0 10.0 0.00 0.00 0.00 31 1012.8
20180624012856 82 159 7.0 8.0 0.00 0.00 0.00 30 1012.6
20180624012735 82 182 4.0 11.0 0.00 0.00 0.00 30 1012.7
20180624012529 80 182 9.0 10.0 0.00 0.00 0.00 31 1012.6
20180624012523 80 182 9.0 10.0 0.00 0.00 0.00 31 1012.6
20180624012521 80 182 9.0 10.0 0.00 0.00 0.00 31 1012.6
20180624012336 82 180 8.0 10.0 0.00 0.00 0.00 30 1012.7
20180624012122 81 177 9.0 12.0 0.00 0.00 0.00 31 1012.6
20180624012120 81 177 9.0 12.0 0.00 0.00 0.00 31 1012.6
20180624011952 83 180 10.0 10.0 0.00 0.00 0.00 30 1012.8
20180624011721 81 216 3.0 11.0 0.00 0.00 0.00 31 1012.7
20180624011719 81 216 3.0 11.0 0.00 0.00 0.00 31 1012.7
20180624011417 85 166 6.0 11.0 0.00 0.00 0.00 30 1013.1
20180624011320 81 193 7.0 13.0 0.00 0.00 0.00 31 1012.7
20180624011317 81 193 7.0 13.0 0.00 0.00 0.00 31 1012.7
20180624011300 85 189 7.0 8.0 0.00 0.00 0.00 30 1012.8
20180624011115 84 128 6.0 10.0 0.00 0.00 0.00 30 1013.0
20180624011013 85 166 6.0 11.0 0.00 0.00 0.00 30 1013.1
20180624010916 82 164 4.0 9.0 0.00 0.00 0.00 31 1012.7
20180624010736 85 175 11.0 11.0 0.00 0.00 0.00 30 1012.9
20180624010514 83 171 7.0 7.0 0.00 0.00 0.00 30 1012.6
20180624010419 85 159 6.0 9.0 0.00 0.00 0.00 29 1013.1
20180624010139 85 168 9.0 10.0 0.00 0.00 0.00 29 1013.1
20180624010131 82 159 7.0 8.0 0.00 0.00 0.00 30 1012.6
20180624010113 83 180 8.0 9.0 0.00 0.00 0.00 30 1012.6
20180624005712 82 180 6.0 10.0 0.00 0.00 0.00 30 1012.5
20180624005311 82 159 7.0 8.0 0.00 0.00 0.00 30 1012.6
20180624004915 82 182 4.0 11.0 0.00 0.00 0.00 30 1012.7
20180624004910 82 182 4.0 11.0 0.00 0.00 0.00 30 1012.7
20180624004541 85 182 10.0 10.0 0.00 0.00 0.00 29 1013.2
20180624004515 82 180 8.0 10.0 0.00 0.00 0.00 30 1012.7
20180624004510 82 180 8.0 10.0 0.00 0.00 0.00 30 1012.7
20180624004508 82 180 8.0 10.0 0.00 0.00 0.00 30 1012.7
20180624004249 86 166 5.0 11.0 0.00 0.00 0.00 29 1013.3
20180624004109 83 180 10.0 10.0 0.00 0.00 0.00 30 1012.8
20180624004106 83 180 10.0 10.0 0.00 0.00 0.00 30 1012.8
20180624003846 86 180 7.0 12.0 0.00 0.00 0.00 29 1013.3
20180624003705 84 180 3.0 7.0 0.00 0.00 0.00 30 1012.8
20180624003649 85 166 6.0 11.0 0.00 0.00 0.00 30 1013.1
20180624003459 86 191 6.0 12.0 0.00 0.00 0.00 29 1013.3
20180624003304 85 189 7.0 8.0 0.00 0.00 0.00 30 1012.8
20180624002551 84 128 6.0 10.0 0.00 0.00 0.00 30 1013.0
20180624002504 84 128 6.0 10.0 0.00 0.00 0.00 30 1013.0
20180624002502 84 128 6.0 10.0 0.00 0.00 0.00 30 1013.0
20180624002100 85 166 6.0 11.0 0.00 0.00 0.00 30 1013.1
20180624001705 85 175 11.0 11.0 0.00 0.00 0.00 30 1012.9
20180624001701 85 175 11.0 11.0 0.00 0.00 0.00 30 1012.9
20180624001658 85 175 11.0 11.0 0.00 0.00 0.00 30 1012.9
20180624001525 86 198 7.0 11.0 0.00 0.00 0.00 29 1013.4
20180624001304 85 159 6.0 9.0 0.00 0.00 0.00 29 1013.1
20180624001300 85 159 6.0 9.0 0.00 0.00 0.00 29 1013.1
20180624001259 85 159 6.0 9.0 0.00 0.00 0.00 29 1013.1
20180624001257 85 159 6.0 9.0 0.00 0.00 0.00 29 1013.1
20180624001104 86 202 4.0 11.0 0.00 0.00 0.00 28 1013.3
20180624001102 85 168 9.0 10.0 0.00 0.00 0.00 29 1013.1
20180624000858 85 168 9.0 10.0 0.00 0.00 0.00 29 1013.1
20180624000602 87 180 6.0 7.0 0.00 0.00 0.00 30 1013.4
20180624000455 85 207 8.0 11.0 0.00 0.00 0.00 29 1013.1
20180624000301 86 182 7.0 9.0 0.00 0.00 0.00 30 1013.4
20180624000059 85 182 10.0 10.0 0.00 0.00 0.00 29 1013.2
20180624000056 85 182 10.0 10.0 0.00 0.00 0.00 29 1013.2
20180624000054 85 182 10.0 10.0 0.00 0.00 0.00 29 1013.2
20180623235841 86 202 5.0 11.0 0.00 0.00 0.00 30 1013.5
20180623235654 86 166 5.0 11.0 0.00 0.00 0.00 29 1013.3
20180623235652 86 166 5.0 11.0 0.00 0.00 0.00 29 1013.3
20180623235258 86 180 7.0 12.0 0.00 0.00 0.00 29 1013.3
20180623235252 86 180 7.0 12.0 0.00 0.00 0.00 29 1013.3
20180623235027 86 173 6.0 7.0 0.00 0.00 0.00 30 1013.5
20180623234900 86 191 6.0 12.0 0.00 0.00 0.00 29 1013.3
20180623234849 86 191 6.0 12.0 0.00 0.00 0.00 29 1013.3
20180623234448 86 175 7.0 11.0 0.00 0.00 0.00 29 1013.3
20180623234236 85 175 8.0 12.0 0.00 0.00 0.00 30 1013.6
20180623234047 86 198 7.0 11.0 0.00 0.00 0.00 29 1013.4
20180623233901 85 204 8.0 12.0 0.00 0.00 0.00 30 1013.6
20180623233651 86 202 4.0 11.0 0.00 0.00 0.00 28 1013.3
20180623233649 86 202 4.0 11.0 0.00 0.00 0.00 28 1013.3
20180623233646 86 202 4.0 11.0 0.00 0.00 0.00 28 1013.3
20180623233450 86 172 4.0 10.0 0.00 0.00 0.00 30 1013.6
20180623233247 87 180 6.0 7.0 0.00 0.00 0.00 30 1013.4
20180623233244 87 180 6.0 7.0 0.00 0.00 0.00 30 1013.4
20180623232849 86 182 7.0 9.0 0.00 0.00 0.00 30 1013.4
20180623232843 86 182 7.0 9.0 0.00 0.00 0.00 30 1013.4
20180623232644 86 186 10.0 13.0 0.00 0.00 0.00 30 1013.7
20180623232441 86 202 5.0 11.0 0.00 0.00 0.00 30 1013.5
20180623232040 86 180 11.0 13.0 0.00 0.00 0.00 30 1013.5
20180623231831 87 180 10.0 11.0 0.00 0.00 0.00 30 1013.7
20180623231645 86 173 6.0 7.0 0.00 0.00 0.00 30 1013.5
20180623231642 86 173 6.0 7.0 0.00 0.00 0.00 30 1013.5
20180623231639 86 173 6.0 7.0 0.00 0.00 0.00 30 1013.5
20180623231416 86 200 9.0 9.0 0.00 0.00 0.00 30 1013.7
20180623231238 85 126 3.0 9.0 0.00 0.00 0.00 30 1013.5
20180623230914 86 175 5.0 11.0 0.00 0.00 0.00 30 1013.8
20180623230841 85 175 8.0 12.0 0.00 0.00 0.00 30 1013.6
20180623230836 85 175 8.0 12.0 0.00 0.00 0.00 30 1013.6
20180623230437 85 204 8.0 12.0 0.00 0.00 0.00 30 1013.6
20180623230435 85 204 8.0 12.0 0.00 0.00 0.00 30 1013.6
20180623230408 87 177 7.0 11.0 0.00 0.00 0.00 30 1013.8
20180623230036 86 172 4.0 10.0 0.00 0.00 0.00 30 1013.6
20180623230033 86 172 4.0 10.0 0.00 0.00 0.00 30 1013.6
20180623225921 86 166 3.0 11.0 0.00 0.00 0.00 30 1013.8
20180623225632 85 175 6.0 11.0 0.00 0.00 0.00 30 1013.6
20180623225530 87 162 7.0 12.0 0.00 0.00 0.00 30 1013.7
20180623225308 86 186 10.0 13.0 0.00 0.00 0.00 30 1013.7
20180623225234 86 186 10.0 13.0 0.00 0.00 0.00 30 1013.7
20180623225231 86 186 10.0 13.0 0.00 0.00 0.00 30 1013.7
20180623225130 88 180 6.0 8.0 0.00 0.00 0.00 30 1013.9
20180623224830 87 186 10.0 11.0 0.00 0.00 0.00 30 1013.7
20180623224750 87 198 4.0 12.0 0.00 0.00 0.00 30 1013.8
20180623224434 87 209 7.0 10.0 0.00 0.00 0.00 30 1013.8
20180623224430 87 180 10.0 11.0 0.00 0.00 0.00 30 1013.7
20180623224058 86 200 9.0 9.0 0.00 0.00 0.00 30 1013.7
20180623224031 86 200 9.0 9.0 0.00 0.00 0.00 30 1013.7
20180623224027 86 200 9.0 9.0 0.00 0.00 0.00 30 1013.7
20180623224007 86 121 8.0 9.0 0.00 0.00 0.00 30 1013.8
20180623223632 86 105 4.0 6.0 0.00 0.00 0.00 30 1013.8
20180623223628 86 175 5.0 11.0 0.00 0.00 0.00 30 1013.8
20180623223626 86 175 5.0 11.0 0.00 0.00 0.00 30 1013.8
20180623223404 85 117 4.0 10.0 0.00 0.00 0.00 30 1013.9
20180623223226 87 177 7.0 11.0 0.00 0.00 0.00 30 1013.8
20180623223224 87 177 7.0 11.0 0.00 0.00 0.00 30 1013.8
20180623222950 88 117 8.0 8.0 0.00 0.00 0.00 30 1013.8
20180623222823 86 166 3.0 11.0 0.00 0.00 0.00 30 1013.8
20180623222553 88 147 5.0 13.0 0.00 0.00 0.00 30 1013.9
20180623222424 87 162 7.0 12.0 0.00 0.00 0.00 30 1013.7
20180623222422 87 162 7.0 12.0 0.00 0.00 0.00 30 1013.7
20180623222203 87 103 2.0 13.0 0.00 0.00 0.00 30 1013.9
20180623222023 88 180 6.0 8.0 0.00 0.00 0.00 30 1013.9
20180623222021 88 180 6.0 8.0 0.00 0.00 0.00 30 1013.9
20180623221622 87 198 4.0 12.0 0.00 0.00 0.00 30 1013.8
20180623221619 87 198 4.0 12.0 0.00 0.00 0.00 30 1013.8
20180623221220 87 209 7.0 10.0 0.00 0.00 0.00 30 1013.8
20180623221218 87 209 7.0 10.0 0.00 0.00 0.00 30 1013.8
20180623221003 88 195 9.0 13.0 0.00 0.00 0.00 30 1014.1
20180623220817 86 121 8.0 9.0 0.00 0.00 0.00 30 1013.8
20180623220632 87 184 5.0 9.0 0.00 0.00 0.00 30 1014.1
20180623220424 86 105 4.0 6.0 0.00 0.00 0.00 30 1013.8
20180623220415 86 105 4.0 6.0 0.00 0.00 0.00 30 1013.8
20180623220131 87 103 5.0 10.0 0.00 0.00 0.00 30 1014.1
20180623220016 85 117 4.0 10.0 0.00 0.00 0.00 30 1013.9
20180623220014 85 117 4.0 10.0 0.00 0.00 0.00 30 1013.9
20180623215746 85 168 7.0 9.0 0.00 0.00 0.00 30 1014.1
20180623215616 88 117 8.0 8.0 0.00 0.00 0.00 30 1013.8
20180623215613 88 117 8.0 8.0 0.00 0.00 0.00 30 1013.8
20180623215310 84 128 6.0 11.0 0.00 0.00 0.00 30 1014.2
20180623215213 88 147 5.0 13.0 0.00 0.00 0.00 30 1013.9
20180623215211 88 147 5.0 13.0 0.00 0.00 0.00 30 1013.9
20180623214829 85 132 7.0 11.0 0.00 0.00 0.00 30 1014.2
20180623214821 87 103 2.0 13.0 0.00 0.00 0.00 30 1013.9
20180623214810 87 103 2.0 13.0 0.00 0.00 0.00 30 1013.9
20180623214409 87 182 7.0 12.0 0.00 0.00 0.00 30 1013.9
20180623214336 87 164 6.0 9.0 0.00 0.00 0.00 30 1014.1
20180623214008 86 225 6.0 12.0 0.00 0.00 0.00 30 1014.0
20180623213830 87 140 4.0 8.0 0.00 0.00 0.00 31 1014.1
20180623213610 88 195 9.0 13.0 0.00 0.00 0.00 30 1014.1
20180623213606 88 195 9.0 13.0 0.00 0.00 0.00 30 1014.1
20180623213440 87 120 3.0 11.0 0.00 0.00 0.00 31 1014.1
20180623213214 87 184 5.0 9.0 0.00 0.00 0.00 30 1014.1
20180623213205 87 184 5.0 9.0 0.00 0.00 0.00 30 1014.1
20180623212811 87 103 5.0 10.0 0.00 0.00 0.00 30 1014.1
20180623212803 87 103 5.0 10.0 0.00 0.00 0.00 30 1014.1
20180623212620 87 184 8.0 11.0 0.00 0.00 0.00 32 1014.2
20180623212404 85 168 7.0 0.0 0.00 0.00 0.00 30 1014.1
20180623212402 85 168 7.0 9.0 0.00 0.00 0.00 30 1014.1
20180623212238 87 146 2.0 9.0 0.00 0.00 0.00 32 1014.1
20180623212005 84 128 6.0 11.0 0.00 0.00 0.00 30 1014.2
20180623212003 84 128 6.0 11.0 0.00 0.00 0.00 30 1014.2
20180623212001 84 128 6.0 11.0 0.00 0.00 0.00 30 1014.2
20180623211911 86 175 9.0 9.0 0.00 0.00 0.00 33 1014.2
20180623211600 85 132 7.0 11.0 0.00 0.00 0.00 30 1014.2
20180623211445 86 182 7.0 10.0 0.00 0.00 0.00 33 1014.1
20180623211159 87 164 6.0 9.0 0.00 0.00 0.00 30 1014.1
20180623211050 85 177 4.0 10.0 0.00 0.00 0.00 33 1014.1
20180623210801 87 140 4.0 8.0 0.00 0.00 0.00 31 1014.1
20180623210759 87 140 4.0 8.0 0.00 0.00 0.00 31 1014.1
20180623210757 87 140 4.0 8.0 0.00 0.00 0.00 31 1014.1
20180623210653 85 154 5.0 13.0 0.00 0.00 0.00 34 1014.0
20180623210358 87 120 3.0 11.0 0.00 0.00 0.00 31 1014.1
20180623210355 87 120 3.0 11.0 0.00 0.00 0.00 31 1014.1
20180623210100 85 180 5.0 12.0 0.00 0.00 0.00 34 1014.1
20180623205954 87 166 8.0 9.0 0.00 0.00 0.00 31 1014.1
20180623205553 87 175 8.0 9.0 0.00 0.00 0.00 32 1014.2
20180623205518 85 189 5.0 8.0 0.00 0.00 0.00 34 1014.0
20180623205154 87 184 8.0 11.0 0.00 0.00 0.00 32 1014.2
20180623205152 87 184 8.0 11.0 0.00 0.00 0.00 32 1014.2
20180623205036 84 81 1.0 9.0 0.00 0.00 0.00 35 1014.1
20180623204753 87 146 2.0 9.0 0.00 0.00 0.00 32 1014.1
20180623204751 87 146 2.0 9.0 0.00 0.00 0.00 32 1014.1
20180623204555 81 126 3.0 9.0 0.00 0.00 0.00 35 1014.2
20180623204401 86 175 9.0 9.0 0.00 0.00 0.00 33 1014.2
20180623204349 86 175 9.0 9.0 0.00 0.00 0.00 33 1014.2
20180623204210 82 112 6.0 10.0 0.00 0.00 0.00 35 1014.2
20180623203958 86 182 7.0 10.0 0.00 0.00 0.00 33 1014.1
20180623203947 86 182 7.0 10.0 0.00 0.00 0.00 33 1014.1
20180623203548 85 177 4.0 10.0 0.00 0.00 0.00 33 1014.1
20180623203546 85 177 4.0 10.0 0.00 0.00 0.00 33 1014.1
20180623203148 85 154 5.0 13.0 0.00 0.00 0.00 34 1014.0
20180623203145 85 154 5.0 13.0 0.00 0.00 0.00 34 1014.0
20180623203017 83 142 3.0 11.0 0.00 0.00 0.00 37 1014.3
20180623202746 85 180 5.0 12.0 0.00 0.00 0.00 34 1014.1
20180623202744 85 180 5.0 12.0 0.00 0.00 0.00 34 1014.1
20180623202659 83 180 8.0 11.0 0.00 0.00 0.00 37 1014.2
20180623202348 85 189 5.0 8.0 0.00 0.00 0.00 34 1014.0
20180623202345 85 189 5.0 8.0 0.00 0.00 0.00 34 1014.0
20180623202343 85 189 5.0 8.0 0.00 0.00 0.00 34 1014.0
20180623202217 83 218 6.0 8.0 0.00 0.00 0.00 38 1014.1
20180623201947 84 81 1.0 9.0 0.00 0.00 0.00 35 1014.1
20180623201941 84 81 1.0 9.0 0.00 0.00 0.00 35 1014.1
20180623201539 81 126 3.0 9.0 0.00 0.00 0.00 35 1014.2
20180623201444 78 87 6.0 13.0 0.00 0.00 0.00 39 1014.2
20180623201145 82 112 6.0 10.0 0.00 0.00 0.00 35 1014.2
20180623201138 82 112 6.0 10.0 0.00 0.00 0.00 35 1014.2
20180623200939 83 108 2.0 10.0 0.00 0.00 0.00 39 1014.3
20180623200737 81 144 3.0 10.0 0.00 0.00 0.00 36 1014.2
20180623200336 84 166 3.0 8.0 0.00 0.00 0.00 36 1014.3
20180623200042 82 182 9.0 11.0 0.00 0.00 0.01 40 1014.2
20180623195937 83 142 3.0 11.0 0.00 0.00 0.00 37 1014.3
20180623195935 83 142 3.0 11.0 0.00 0.00 0.00 37 1014.3
20180623195537 80 165 8.0 8.0 0.00 0.00 0.01 40 1014.2
20180623195533 83 180 8.0 11.0 0.00 0.00 0.00 37 1014.2
20180623195214 80 175 3.0 11.0 0.00 0.00 0.01 41 1014.2
20180623195131 83 218 6.0 8.0 0.00 0.00 0.00 38 1014.1
20180623194739 79 191 11.0 11.0 0.00 0.00 0.01 42 1014.2
20180623194730 81 144 4.0 9.0 0.00 0.00 0.00 38 1014.2
20180623194329 78 87 6.0 13.0 0.00 0.00 0.00 39 1014.2
20180623194313 78 193 8.0 9.0 0.00 0.00 0.01 42 1014.2
20180623193931 83 108 2.0 10.0 0.00 0.00 0.00 39 1014.3
20180623193928 83 108 2.0 10.0 0.00 0.00 0.00 39 1014.3
20180623193903 78 121 3.0 9.0 0.00 0.00 0.01 43 1014.3
20180623193527 83 171 6.0 12.0 0.00 0.00 0.01 40 1014.3
20180623193125 82 182 9.0 11.0 0.00 0.00 0.01 40 1014.2
20180623192916 77 180 7.0 9.0 0.00 0.00 0.01 43 1014.3
20180623192732 80 165 8.0 8.0 0.00 0.00 0.01 40 1014.2
20180623192724 80 165 8.0 8.0 0.00 0.00 0.01 40 1014.2
20180623192329 80 175 3.0 11.0 0.00 0.00 0.01 41 1014.2
20180623192326 80 175 3.0 11.0 0.00 0.00 0.01 41 1014.2
20180623192323 80 175 3.0 11.0 0.00 0.00 0.01 41 1014.2
20180623192023 76 171 6.0 8.0 0.00 0.00 0.01 44 1014.3
20180623191921 79 191 11.0 11.0 0.00 0.00 0.01 42 1014.2
20180623191520 78 193 8.0 9.0 0.00 0.00 0.01 42 1014.2
20180623191141 76 173 5.0 10.0 0.00 0.00 0.01 45 1014.1
20180623191119 78 121 3.0 9.0 0.00 0.00 0.01 43 1014.3
20180623190319 77 180 7.0 9.0 0.00 0.00 0.01 43 1014.3
20180623190316 77 180 7.0 9.0 0.00 0.00 0.01 43 1014.3
20180623190222 75 162 3.0 7.0 0.00 0.00 0.01 45 1014.2
20180623185915 77 141 3.0 8.0 0.00 0.00 0.01 44 1014.2
20180623185841 74 175 7.0 7.0 0.00 0.00 0.01 46 1014.1
20180623185516 76 171 6.0 8.0 0.00 0.00 0.01 44 1014.3
20180623185513 76 171 6.0 8.0 0.00 0.00 0.01 44 1014.3
20180623185440 74 195 5.0 7.0 0.00 0.00 0.01 46 1014.1
20180623185038 74 173 7.0 8.0 0.00 0.00 0.01 46 1014.2
20180623184711 76 173 5.0 10.0 0.00 0.00 0.01 45 1014.1
20180623184310 76 189 6.0 9.0 0.00 0.00 0.01 45 1014.0
20180623184241 74 182 7.0 7.0 0.00 0.00 0.01 47 1014.1
20180623183910 75 175 6.0 6.0 0.00 0.00 0.01 45 1014.1
20180623183509 75 162 3.0 7.0 0.00 0.00 0.01 45 1014.2
20180623183507 75 162 3.0 7.0 0.00 0.00 0.01 45 1014.2
20180623183331 73 117 5.0 7.0 0.00 0.00 0.01 48 1014.0
20180623183113 74 175 7.0 7.0 0.00 0.00 0.01 46 1014.1
20180623183105 74 175 7.0 7.0 0.00 0.00 0.01 46 1014.1
20180623182945 74 184 7.0 9.0 0.00 0.00 0.01 48 1014.0
20180623182709 74 195 5.0 7.0 0.00 0.00 0.01 46 1014.1
20180623182705 74 195 5.0 7.0 0.00 0.00 0.01 46 1014.1
20180623182558 74 105 2.0 5.0 0.00 0.00 0.01 48 1014.1
20180623182312 73 173 3.0 5.0 0.00 0.00 0.01 49 1014.0
20180623182303 74 173 7.0 8.0 0.00 0.00 0.01 46 1014.2
20180623181902 74 186 2.0 9.0 0.00 0.00 0.01 47 1014.1
20180623181855 72 145 5.0 7.0 0.00 0.00 0.01 49 1014.0
20180623181536 71 119 7.0 9.0 0.00 0.00 0.01 49 1013.9
20180623181503 74 182 7.0 7.0 0.00 0.00 0.01 47 1014.1
20180623181500 74 182 7.0 7.0 0.00 0.00 0.01 47 1014.1
20180623181151 73 150 2.0 8.0 0.00 0.00 0.01 50 1013.9
20180623181059 73 173 7.0 8.0 0.00 0.00 0.01 47 1014.1
20180623180800 72 180 5.0 9.0 0.00 0.00 0.01 50 1013.8
20180623180700 73 117 5.0 7.0 0.00 0.00 0.01 48 1014.0
20180623180658 73 117 5.0 7.0 0.00 0.00 0.01 48 1014.0
20180623180402 72 190 4.0 6.0 0.00 0.00 0.01 50 1013.7
20180623180256 74 184 7.0 9.0 0.00 0.00 0.01 48 1014.0
20180623175949 72 153 2.0 4.0 0.00 0.00 0.01 51 1013.7
20180623175858 74 105 2.0 5.0 0.00 0.00 0.01 48 1014.1
20180623175855 74 105 2.0 5.0 0.00 0.00 0.01 48 1014.1
20180623175454 73 173 3.0 5.0 0.00 0.00 0.01 49 1014.0
20180623175432 71 132 4.0 6.0 0.00 0.00 0.01 51 1013.6
20180623175052 72 145 5.0 7.0 0.00 0.00 0.01 49 1014.0
20180623175032 71 92 5.0 6.0 0.00 0.00 0.01 51 1013.6
20180623174657 71 119 7.0 9.0 0.00 0.00 0.01 49 1013.9
20180623174654 71 119 7.0 9.0 0.00 0.00 0.01 49 1013.9
20180623174651 71 119 7.0 9.0 0.00 0.00 0.01 49 1013.9
20180623174627 71 191 2.0 5.0 0.00 0.00 0.01 52 1013.6
20180623174250 73 150 2.0 8.0 0.00 0.00 0.01 50 1013.9
20180623174159 70 137 4.0 5.0 0.00 0.00 0.01 52 1013.5
20180623173849 72 180 5.0 9.0 0.00 0.00 0.01 50 1013.8
20180623173450 72 190 4.0 6.0 0.00 0.00 0.01 50 1013.7
20180623173447 72 190 4.0 6.0 0.00 0.00 0.01 50 1013.7
20180623173223 70 121 4.0 7.0 0.00 0.00 0.01 53 1013.4
20180623173046 72 153 2.0 4.0 0.00 0.00 0.01 51 1013.7
20180623172646 71 132 4.0 6.0 0.00 0.00 0.01 51 1013.6
20180623172644 71 132 4.0 6.0 0.00 0.00 0.01 51 1013.6
20180623172243 71 92 5.0 6.0 0.00 0.00 0.01 51 1013.6
20180623172223 69 144 2.0 6.0 0.00 0.00 0.01 54 1013.4
20180623171844 71 191 2.0 5.0 0.00 0.00 0.01 52 1013.6
20180623171842 71 191 2.0 5.0 0.00 0.00 0.01 52 1013.6
20180623171748 68 135 3.0 7.0 0.00 0.00 0.01 54 1013.5
20180623171443 68 87 6.0 6.0 0.00 0.00 0.01 54 1013.5
20180623171441 70 137 4.0 5.0 0.00 0.00 0.01 52 1013.5
20180623171121 67 130 4.0 7.0 0.00 0.00 0.01 55 1013.4
20180623171039 69 126 3.0 7.0 0.00 0.00 0.01 52 1013.5
20180623170641 67 112 2.0 5.0 0.00 0.00 0.01 55 1013.5
20180623170638 70 121 4.0 7.0 0.00 0.00 0.01 53 1013.4
20180623170236 70 135 2.0 7.0 0.00 0.00 0.01 53 1013.5